Location: Hepcat Sky Observatory
(29.9800°N, 95.6500°W)
Time: 03:35:55
(UTC-05:00)

Cosmos 2366 rocket - Visible Passes

Search period start: 02 August 2014 00:00
Search period end: 12 August 2014 00:00
Orbit: 955 x 998 km, 82.9° (Epoch: 31 July)

Date Brightness Start Highest point End Pass type
(mag) Time Alt. Az. Time Alt. Az. Time Alt. Az.
02 Aug 4.9 21:00:52 10° NNE 21:06:04 28° ENE 21:10:11 14° SE visible
02 Aug 5.5 22:46:04 10° NNW 22:51:19 31° W 22:54:54 18° SW visible
03 Aug 4.0 21:25:53 10° N 21:31:54 57° E 21:36:15 19° SSE visible
03 Aug 6.4 23:13:25 10° NW 23:16:39 15° W 23:19:53 10° WSW visible
04 Aug 4.1 21:51:27 10° N 21:57:34 73° W 22:02:22 17° S visible
05 Aug 5.1 20:32:52 10° NNE 20:37:43 24° ENE 20:42:33 10° SE visible
05 Aug 5.3 22:17:35 10° NNW 22:23:05 36° W 22:28:34 10° SSW visible
06 Aug 4.2 20:57:41 10° N 21:03:35 48° E 21:09:28 10° SSE visible
06 Aug 6.3 22:44:33 10° NW 22:48:27 18° W 22:52:22 10° SW visible
07 Aug 4.0 21:23:08 10° N 21:29:17 86° W 21:35:25 10° S visible
08 Aug 5.1 21:49:07 10° NNW 21:54:50 43° W 22:00:34 10° SSW visible
09 Aug 4.4 20:29:31 10° N 20:35:15 41° E 20:40:59 10° SSE visible
09 Aug 6.2 22:15:49 10° NW 22:20:15 21° W 22:24:41 10° SW visible
10 Aug 3.9 20:54:51 10° N 21:01:00 82° E 21:07:09 10° S visible
11 Aug 4.8 21:20:42 10° NNW 21:26:35 50° W 21:32:29 10° SSW visible
